Location: Eagan
(44.8336°N, 93.1671°W)
Time: 10:16:46
(UTC+00:00)

BlueWalker 3 - Pass Details

Date: 13 October 2024
Orbit: 470 x 481 km, 53.2° (Epoch: 11 November)

Event Time Altitude Azimuth Distance (km) Brightness Sun altitude
Exits shadow 09:15:26 11° 48° (NE) 1,595 5.2 -33.9°
Drops below altitude 10° 09:15:32 10° 49° (NE) 1,633 5.3 -33.9°
Sets 09:17:46 0° 56° (NE) 2,513 6.5 -33.5°
